Simultaneous Nadir Overpasses (SNOs) Predictions

Prediction of SNOs between GOES-14 and NOAA-20 Satellite Orbit:

Table of predicted SNOs for the next 14.0 days since TLE Epoch: 5/13/2023
Index Date Time (GOES-14) GOES-14 Lat,Lon NOAA-20 Lat,Lon Distance(km) Time Diff (sec)
1 05/13/2023 20:46:58 -0.14,-108.40 -0.59,-110.53 242.56 80
2 05/14/2023 20:30:52 -0.15,-108.42 0.38,-105.99 275.97 80
3 05/16/2023 08:52:41 0.13,-108.47 0.77,-111.26 318.93 80
4 05/17/2023 08:31:16 0.14,-108.47 -0.26,-106.73 198.74 80
5 05/18/2023 20:53:12 -0.11,-108.45 -0.92,-112.03 408.56 80
6 05/19/2023 20:37:08 -0.12,-108.46 0.11,-107.50 109.86 80
7 05/21/2023 08:58:56 0.09,-108.53 1.03,-112.78 483.75 80
8 05/22/2023 08:37:31 0.11,-108.53 0.05,-108.23 33.82 80
9 05/24/2023 20:40:43 -0.10,-108.50 -0.19,-109.01 56.69 80
10 05/25/2023 20:24:37 -0.12,-108.52 0.79,-104.46 461.97 80
